This is the latest recevied weather packets stored in our database for station/object EA7AVH-10. If no packets are shown the sender has not sent any weather packets the latest 10 day(s).
| Time | Temp. | Humidity | Pressure | Rain* | Wind** | Luminosity | Snow |
|---|---|---|---|---|---|---|---|
| 1777843049 | 16.11° C | 73% | 922.1 hPa | - | - | - | - |
| 1777842148 | 16.11° C | 73% | 921.9 hPa | - | - | - | - |
| 1777841247 | 16.11° C | 73% | 921.9 hPa | - | - | - | - |
| 1777840346 | 16.67° C | 72% | 921.7 hPa | - | - | - | - |
| 1777839446 | 17.22° C | 72% | 921.5 hPa | - | - | - | - |
| 1777838545 | 17.22° C | 71% | 921.3 hPa | - | - | - | - |
| 1777837644 | 17.78° C | 70% | 921 hPa | - | - | - | - |
| 1777836743 | 17.78° C | 69% | 920.9 hPa | - | - | - | - |
| 1777835842 | 17.78° C | 69% | 920.7 hPa | - | - | - | - |
| 1777834942 | 18.33° C | 68% | 920.7 hPa | - | - | - | - |
| 1777834041 | 18.89° C | 67% | 920.4 hPa | - | - | - | - |
| 1777833140 | 19.44° C | 65% | 920.2 hPa | - | - | - | - |
| 1777832239 | 20° C | 65% | 920.2 hPa | - | - | - | - |
| 1777831338 | 20.56° C | 64% | 920.2 hPa | - | - | - | - |
| 1777830438 | 20.56° C | 65% | 920.1 hPa | - | - | - | - |
| 1777829537 | 20° C | 63% | 920 hPa | - | - | - | - |
| 1777828636 | 21.11° C | 61% | 920 hPa | - | - | - | - |
| 1777827775 | 21.11° C | 62% | 920.1 hPa | - | - | - | - |
| 1777826874 | 21.67° C | 60% | 919.9 hPa | - | - | - | - |
| 1777825973 | 22.78° C | 59% | 920.1 hPa | - | - | - | - |
| 1777825072 | 22.22° C | 60% | 920 hPa | - | - | - | - |
| 1777824172 | 22.22° C | 60% | 920.1 hPa | - | - | - | - |
| 1777823271 | 23.33° C | 60% | 920.1 hPa | - | - | - | - |
| 1777822370 | 22.78° C | 60% | 920.2 hPa | - | - | - | - |
| 1777821469 | 21.67° C | 60% | 920.3 hPa | - | - | - | - |
* Rain since midnight (hover to see other rain measurements)
** Current wind speed in m/s (hover to see current wind gust speed)